Weather History for KPWK - March, 2013

Change the Weather History Date:

Sunday, March 17, 2013

  Actual Average Record
Temperature  
Mean Temperature 29 °F 38 °F  
Max Temperature 33 °F 46 °F 82 °F (2012)
Min Temperature 24 °F 29 °F 18 °F (2014)
Degree Days  
Heating Degree Days 36 27  
Month to date heating degree days 579 505  
Since 1 July heating degree days 5086 5243  
Cooling Degree Days 0 0  
Month to date cooling degree days 0 0  
Year to date cooling degree days 0 0  
Moisture  
Dew Point 19 °F    
Average Humidity 66    
Maximum Humidity 72    
Minimum Humidity 60    
Precipitation  
Precipitation 0.00 in 0.07 in 0.56 in (2001)
Month to date precipitation 0.75 1.10  
Year to date precipitation 5.71 3.68  
Sea Level Pressure  
Sea Level Pressure 30.17 in    
Wind  
Wind Speed 10 mph (NE)    
Max Wind Speed 16 mph    
Max Gust Speed 22 mph    
Visibility 10 miles    
Events      
T = Trace of Precipitation, MM = Missing Value Source: NWS Daily Summary

Daily Weather History Graph

Daily Weather History Graph

Search for Another Location

Airport or City:

Trip Planner

Search our weather history database for the weather conditions in past years. The results will help you decide how hot, cold, wet, or windy it might be!

Date:

Astronomy

Mar. 17, 2013 Rise Set
Actual Time 6:59 AM CDT 7:00 PM CDT
Civil Twilight 6:31 AM CDT 7:28 PM CDT
Nautical Twilight 5:59 AM CDT 8:01 PM CDT
Astronomical Twilight 5:26 AM CDT 8:34 PM CDT
Moon 10:06 AM CDT (3/17) 12:13 AM CDT (3/17)
Length of Visible Light 12h 56m
Length of Day
12h 01m
Waxing Crescent, 31% of the Moon is Illuminated
Mar 17
Waxing Crescent
Mar 19
First Quarter
Mar 27
Full
Apr 2
Last Quarter
Apr 10
New

Hourly Weather History & Observations

Time (CDT) Temp. Windchill Dew Point Humidity Pressure Visibility Wind Dir Wind Speed Gust Speed Precip Events Conditions
12:52 AM 28.9 °F 20.4 °F 19.9 °F 69% 30.17 in 10.0 mi WNW 9.2 mph - N/A   Overcast
1:52 AM 28.9 °F 19.2 °F 19.0 °F 67% 30.17 in 10.0 mi NNW 11.5 mph - N/A   Overcast
2:07 AM 28.4 °F 20.4 °F 19.4 °F 69% 30.14 in 10.0 mi NNW 8.1 mph - N/A   Overcast
2:52 AM 28.9 °F 20.4 °F 18.0 °F 64% 30.17 in 10.0 mi NNW 9.2 mph - N/A   Overcast
3:12 AM 28.4 °F 18.0 °F 19.4 °F 69% 30.14 in 10.0 mi North 12.7 mph 16.1 mph N/A   Overcast
3:44 AM 26.6 °F 16.2 °F 15.8 °F 64% 30.14 in 10.0 mi North 11.5 mph - N/A   Scattered Clouds
3:52 AM 27.0 °F 18.7 °F 16.0 °F 63% 30.17 in 10.0 mi North 8.1 mph - N/A   Partly Cloudy
4:52 AM 26.1 °F 15.6 °F 15.1 °F 63% 30.17 in 10.0 mi NNE 11.5 mph - N/A   Clear
5:52 AM 25.0 °F 18.1 °F 15.1 °F 66% 30.20 in 10.0 mi North 5.8 mph - N/A   Clear
6:52 AM 24.1 °F 16.0 °F 15.1 °F 69% 30.22 in 10.0 mi North 6.9 mph - N/A   Mostly Cloudy
7:52 AM 25.0 °F 18.1 °F 16.0 °F 69% 30.23 in 10.0 mi North 5.8 mph - N/A   Mostly Cloudy
8:41 AM 26.6 °F 22.6 °F 17.6 °F 69% 30.21 in 10.0 mi NNW 3.5 mph - N/A   Overcast
8:52 AM 26.1 °F 19.4 °F 18.0 °F 71% 30.24 in 10.0 mi NNW 5.8 mph - N/A   Overcast
9:32 AM 30.2 °F 20.2 °F 19.4 °F 64% 30.21 in 10.0 mi ENE 12.7 mph 20.7 mph N/A   Overcast
9:52 AM 30.0 °F 22.4 °F 19.0 °F 64% 30.25 in 10.0 mi ENE 8.1 mph 19.6 mph N/A   Overcast
11:52 AM 30.9 °F 21.7 °F 19.0 °F 61% 30.25 in 10.0 mi ENE 11.5 mph 18.4 mph N/A   Overcast
12:52 PM 30.0 °F 19.5 °F 19.9 °F 66% 30.24 in 10.0 mi ENE 13.8 mph 19.6 mph N/A   Overcast
1:52 PM 30.9 °F 22.2 °F 19.0 °F 61% 30.21 in 10.0 mi ENE 10.4 mph - N/A   Overcast
2:00 PM 30.2 °F 20.8 °F 19.4 °F 64% 30.19 in 10.0 mi ENE 11.5 mph 17.3 mph N/A   Overcast
2:52 PM 30.9 °F 21.2 °F 21.0 °F 67% 30.18 in 10.0 mi ENE 12.7 mph 19.6 mph N/A   Mostly Cloudy
3:38 PM 33.8 °F 25.3 °F 21.2 °F 60% 30.15 in 10.0 mi East 11.5 mph 19.6 mph N/A   Scattered Clouds
3:52 PM 33.1 °F 24.9 °F 21.0 °F 61% 30.17 in 10.0 mi ENE 10.4 mph 18.4 mph N/A   Partly Cloudy
4:52 PM 32.0 °F 23.6 °F 21.9 °F 66% 30.14 in 10.0 mi East 10.4 mph - N/A   Clear
5:52 PM 30.9 °F 21.2 °F 21.0 °F 67% 30.15 in 10.0 mi ENE 12.7 mph - N/A   Clear
6:52 PM 30.0 °F 23.2 °F 21.0 °F 69% 30.14 in 10.0 mi East 6.9 mph - N/A   Clear
7:52 PM 30.9 °F 23.5 °F 21.9 °F 69% 30.13 in 10.0 mi ENE 8.1 mph - N/A   Clear
9:52 PM 33.1 °F 24.4 °F 23.0 °F 66% 30.08 in 10.0 mi East 11.5 mph 17.3 mph N/A   Clear
10:52 PM 30.9 °F 21.2 °F 23.0 °F 72% 30.07 in 10.0 mi ESE 12.7 mph 18.4 mph N/A   Clear
11:52 PM 30.9 °F 21.2 °F 21.9 °F 69% 30.04 in 10.0 mi ESE 12.7 mph - N/A   Clear